• Join FlightAware (Why Join?)
  • Login
  • US Flag GB Flag 
05:09 EST


 

Airport Tracker/Info


-or-


 

Live Flight TrackerFlight Track Log ✈ FLG3432 ✈ 30-Apr-2013 ✈ KJFK - KDCA

Flight Track Log - Related Links

Times and Time Zones

All times are in EDT time to prevent confusion due to time zone crossing. See the FLG3432 flight status page for this flight to view local times or setup timezone preferences in your user account.

Time Position Orientation Groundspeed Altitude Reporting Facility
EDT Latitude Longitude Course Direction KTS MPH feet Rate Location/Type
09:16 40.6500 -73.8500 246° West 186 214 1,700  Level New York TRACON
09:17 40.6000 -73.9000 217° Southwest 229 264 3,400 2,100 Climbing New York TRACON
09:18 40.5500 -73.9500 217° Southwest 274 315 6,000 2,820 Climbing New York TRACON
09:19 40.3743 -74.1870 233° Southwest  Level FlightAware Approximate
09:19 40.4833 -74.0000 210° Southwest 282 325 9,100  Level New York TRACON
09:20 40.3079 -74.2981 232° Southwest  Level FlightAware Approximate
09:20 40.4167 -74.0667 217° Southwest 311 358 10,900  Level New York TRACON
09:21 40.2451 -74.4073 229° Southwest  Level FlightAware Approximate
09:22 40.1928 -74.5216 246° West  Level FlightAware Approximate
09:22 40.3294 -74.2367 236° Southwest 361 415 11,800  Level New York Center
09:23 40.2806 -74.3406 238° Southwest 366 421 13,300 1,680 Climbing New York Center
09:24 40.2228 -74.4569 237° Southwest 378 435 15,200 2,280 Climbing New York Center
09:25 40.1972 -74.6025 257° West 369 425 18,000 2,220 Climbing New York Center
09:26 40.1847 -74.7294 263° West 385 443 19,700 960 Climbing New York Center
09:27 40.1753 -74.8839 265° West 395 455 20,000 120 Climbing New York Center
09:28 40.1597 -75.0294 262° West 402 463 20,000  Level New York Center
09:29 40.1503 -75.1703 265° West 402 463 20,000  Level New York Center
09:30 40.1386 -75.3133 264° West 402 463 20,000  Level New York Center
09:31 40.0919 -75.4378 244° Southwest 391 450 20,000  Level New York Center
09:32 40.0214 -75.5389 228° Southwest 380 437 20,000  Level New York Center
09:33 39.9575 -75.6211 225° Southwest 359 413 20,000  Level New York Center
09:34 39.8972 -75.7144 230° Southwest 346 398 20,000 -300 Level New York Center
09:35 39.8472 -75.8164 237° Southwest 341 392 19,500 -1,140 Descending New York Center
09:36 39.7931 -75.9097 233° Southwest 336 387 17,800 -1,860 Descending New York Center
09:37 39.7633 -76.0156 250° West 319 367 15,900 -1,440 Descending New York Center
09:38 39.7464 -76.1142 257° West 319 367 15,000 -420 Descending New York Center
09:39 39.7244 -76.2314 256° West 314 361 15,100 -600 Climbing New York Center
09:40 39.6833 -76.4000 252° West 304 350 13,500 -1,200 Descending Potomac TRACON
09:41 39.6167 -76.4333 201° Southwest 297 342 12,100 -720 Descending Potomac TRACON
09:42 39.5333 -76.4833 205° Southwest 299 344 12,100  Level Potomac TRACON
09:43 39.4667 -76.5167 201° Southwest 300 345 12,100  Level Potomac TRACON
09:44 39.3833 -76.5500 197° South 296 341 12,100 -480 Level Potomac TRACON
09:45 39.3000 -76.6000 205° Southwest 300 345 11,200 -1,080 Descending Potomac TRACON
09:46 39.2333 -76.6333 201° Southwest 297 342 10,100 -600 Descending Potomac TRACON
09:47 39.1667 -76.6667 201° Southwest 296 341 10,100 -60 Level Potomac TRACON
09:48 39.1167 -76.7333 226° Southwest 292 336 10,000 -60 Descending Potomac TRACON
09:49 39.0500 -76.8000 218° Southwest 290 334 10,000 -480 Level Potomac TRACON
09:50 39.0000 -76.8667 226° Southwest 291 335 9,100 -1,440 Descending Potomac TRACON
09:51 38.9333 -76.9333 218° Southwest 283 326 7,300 -1,560 Descending Potomac TRACON
09:52 38.8667 -76.9500 191° South 276 318 6,000 -1,260 Descending Potomac TRACON
09:53 38.7833 -76.9500 180° South 273 314 5,000 -1,320 Descending Potomac TRACON
09:54 38.7167 -76.9333 169° South 256 295 3,500 -1,140 Descending Potomac TRACON
09:55 38.6667 -76.9500 195° South 242 278 2,900 -660 Descending Potomac TRACON